User: anonymous   Login
Location: Ostrava
(49.8330°N, 18.2830°E)
Time: 18:29:32
(UTC+01:00)
Language:

NOAA 19 - Orbit

View from above orbital plane
View from above orbital plane
View from above satellite
View from above satellite

Ground track
Ground track

The orbit data is extracted from the following two-line orbital elements,

1 33591U 09005A   14302.09397794  .00000199  00000-0  13336-3 0  4424
2 33591 098.9597 246.8159 0015114 101.3546 026.8545 14.11792822294885
Epoch (UTC): 29 October 2014 02:15:19
Eccentricity: 0.0015114
inclination: 98.9597°
perigee height: 842 km
apogee height: 864 km
right ascension of ascending node: 246.8159°
argument of perigee: 101.3546°
revolutions per day: 14.11792822
mean anomaly at epoch: 26.8545°
orbit number at epoch: 29488

The dashed part of the orbit path shows where the satellite is in the earth's shadow,  

DLR